ROMMA est une association bénévole à but non lucratif. Votre soutien est indispensable : ADHERER à ROMMA ou FAIRE un DON

Val-d'Arly - (73, Savoie)

Beaufortain (2050 m)   Longitude: 06° 35' 21" E   Latitude: 45° 46' 53" N Station romma n°118
 

Détail journalier du     <<     >>

Température Humidité Vent Dir Rafale Dir. rafale Ensol.
Heure (°C) (%) (km/h) (km/h) (min)
01:00 2.35712ESE19ESE0
02:00 2.2567SE18SE0
03:00 2.2582E3E0
04:00 1.4602SSO6SSE0
05:00 2.1572SSO6ESE0
06:00 2.2554SSE8SSE0
07:00 2.2515SSE8S0
08:00 3.04310SE15SE10
09:00 3.6408ENE13ESE60
10:00 4.3392NE10ESE60
11:00 4.9431NE5ESE60
12:00 3.9423SE13SE60
13:00 5.1366SE11SE60
14:00 5.4395SSE11S60
15:00 6.4387SO18ONO60
16:00 6.3394O11O60
17:00 5.9445NE15N60
18:00 5.9489NE16NE60
19:00 4.95314NE21NNE60
20:00 4.15912NE18NNE10
21:00 3.66016E29ESE0
22:00 3.75920E27E0
23:00 3.6616SE16SE0
minuit

Graphique du 31-03-2019

 

Serveur OMMA